DELTA 1 DEB, 10872

Orbit data source: Space-Track

DELTA 1 DEB, 10872 is space debris in SSO originally from a launch on Thu, 29 Jul 1976 UTC launched from the Air Force Western Test Range (AFWTR). Debris objects in space refer to the collection of defunct objects orbiting the Earth. Examples of debris include non-operational satellites, rocket bodies, and fragments generated from explosions, collisions, or faulty payload assembly.

Loading next visibility...
Identifier
10872, 1976-077DA
Orbit
SSO
Country
Flag of USUS
Related business
Manufacturer
Unknown
Mission
Spacecraft
Bus & Motor
Unknown
Mass
Unknown
Launch date (UTC)
1976-07-29 (50 years ago)
Launch vehicle
Unknown
Launch site
Air Force Western Test Range (AFWTR)
Object type
Payload
Rocket body
Debris
Shape & HBR
Unknown shape, 0.1 m
Radar Cross Section
Small (<0.1 m²)

Expand to show TLE details & history
Last TLE update: 1 day ago

TLE from 1 day ago
0 DELTA 1 DEB
1 10872U 76077DA  26032.99167832  .00000066  00000-0  92926-3 0  9996
2 10872 101.4786  49.7292 0100689 263.2440 154.4598 12.27136250215299
Epoch: 2026-02-01T23:48Z
TLE epoch observation values (Epoch: 2026-02-01T23:48:01.006Z)
Latitude
56.48448°
Longitude
-97.23506°
Altitude
1,643.14 km
Speed
7.023 km/s
True Right ascension
02h 07m 51s
True Declination
56° 20' 37"
Sunlit
Object was in daylight at epoch
Visualization orbit readout
Latitude
Unknown
Longitude
Unknown
Altitude
Unknown
Speed
Unknown
Apparent Right ascension
Unknown
Apparent Declination
Unknown
Sunlit
N/A
Visualization observer readout
Local Sidereal Time
02:45:36
Azimuth
Unknown
Elevation
Unknown
Doppler factor
Unknown
Orbital elements
Apogee altitude
1,639.091 km
Perigee altitude
1,479.251 km
Semi-major axis
7,937.308 km
Eccentricity
0.01007
Inclination
101.4786°
RAAN
49.7292°
Arg. of periapsis
263.244°
True anomaly
154.95166°
Mean anomaly
154.4598°
Eccentric anomaly
154.70629°
Mean motion
3.06926 °/min
Orbital period
117.29 mins
BSTAR
0.00092926
Loading maneuver chart data...
Computing Atmospheric mass density...
Loading historical data...
Loading historical data...
Loading historical data...
Loading historical data...
Loading historical data...
Loading historical data...
Loading historical data...

Documentation

Showing up to 5 results
|